Terminal Aerodrome Forecast
Issued by NWS

Home | Current Version | Previous Version | Graphics & Text | Print | Product List | Glossary Off
Versions: 1 2 3 4 5 6 7 8 9 10 11 12 13 14 15 16 17 18 19 20 21 22 23 24 25 26 27 28 29 30 31 32 33 34 35 36 37 38 39 40

250
FTUS43 KDDC 240533
TAFGCK
TAF
KGCK 240533Z 2406/2506 34016G24KT P6SM OVC017
     FM241300 33015G24KT P6SM OVC030
     FM241600 33021G29KT P6SM SCT050
     FM250200 35010KT P6SM SKC=

USA.gov is the U.S. government's official web portal to all federal, state and local government web resources and services.